This is the latest recevied weather packets stored in our database for station/object SR4DIG-13. If no packets are shown the sender has not sent any weather packets the latest 10 day(s).
| Time | Temp. | Humidity | Pressure | Rain* | Wind** | Luminosity | Snow |
|---|---|---|---|---|---|---|---|
| 1778057386 | 20° C | 60% | 1005.8 hPa | 2.29 mm | - | - | - |
| 1778057085 | 19.44° C | 64% | 1005.9 hPa | 2.29 mm | - | - | - |
| 1778056784 | 18.89° C | 64% | 1005.9 hPa | 2.29 mm | - | - | - |
| 1778056484 | 18.89° C | 64% | 1005.9 hPa | 2.29 mm | - | - | - |
| 1778056183 | 18.33° C | 64% | 1006 hPa | 2.29 mm | - | - | - |
| 1778055881 | 18.33° C | 66% | 1005.9 hPa | 2.29 mm | - | - | - |
| 1778055580 | 18.33° C | 66% | 1005.9 hPa | 2.29 mm | - | - | - |
| 1778055280 | 17.78° C | 66% | 1005.9 hPa | 2.29 mm | - | - | - |
| 1778054979 | 16.67° C | 69% | 1005.9 hPa | 2.29 mm | - | - | - |
| 1778054340 | 16.67° C | 69% | 1006.1 hPa | 2.29 mm | - | - | - |
| 1778054039 | 16.67° C | 69% | 1006.2 hPa | 2.29 mm | - | - | - |
| 1778053738 | 16.11° C | 72% | 1006.3 hPa | 2.29 mm | - | - | - |
| 1778053437 | 15.56° C | 73% | 1006.1 hPa | 2.29 mm | - | - | - |
| 1778053137 | 15.56° C | 73% | 1006.1 hPa | 2.29 mm | - | - | - |
| 1778052836 | 15.56° C | 73% | 1006 hPa | 2.29 mm | - | - | - |
| 1778052535 | 15° C | 74% | 1006.1 hPa | 2.29 mm | - | - | - |
| 1778051904 | 15° C | 75% | 1006.2 hPa | 2.29 mm | - | - | - |
| 1778051603 | 15° C | 75% | 1006.3 hPa | 2.29 mm | - | - | - |
| 1778051302 | 15° C | 75% | 1006.3 hPa | 2.29 mm | - | - | - |
| 1778051001 | 15° C | 76% | 1006.4 hPa | 2.29 mm | - | - | - |
| 1778050698 | 15° C | 76% | 1006.4 hPa | 2.29 mm | - | - | - |
| 1778050397 | 14.44° C | 77% | 1006.5 hPa | 2.29 mm | - | - | - |
| 1778050097 | 13.89° C | 77% | 1006.4 hPa | 2.29 mm | - | - | - |
| 1778049796 | 13.89° C | 79% | 1006.5 hPa | 2.29 mm | - | - | - |
| 1778049495 | 13.89° C | 79% | 1006.5 hPa | 2.29 mm | - | - | - |
* Rain since midnight (hover to see other rain measurements)
** Current wind speed in m/s (hover to see current wind gust speed)